GONETS M 18

导读

GONETS M 18是独联体(CIS)发射的低轨物联网通信卫星,隶属于俄罗斯Gonets-M卫星系列,于2020年9月28日发射升空。该卫星重量约280公斤,运行于高度1500公里、倾角82.5度的近地轨道,支持数据暂存与低速率通信,主要服务物联网传输需求,是俄罗斯“球体”综合星座体系中,面向偏远地区与应急通信的重要组网节点。

Basic Information
目录编号:
46487
目录名称:
GONETS M 18
国际标识:
2020-068B
轨道中心:
EARTH
卫星名称:
GONETS M 18
卫星全名:
--
卫星状态:
在轨 (已飞行2086 天)
发射日期:
2020-09-28 UTC
国别 :
俄罗斯(独联体) (CIS)
星等 :
--
Orbit Information
数据来源 国际轨道数据 AOE轨道数据
星历时间 2026-06-15T06:03:34+0800
7小时前
查看轨道信息
2026-06-15T07:00:00+0800
6小时前
查看轨道信息
半长轴 7872.583km 7872.582km
偏心率 0.0020423 0.0020401
轨道倾角 82.494° 82.494°
近地点辐角 38.965° 38.631°
升交点赤经 348.033° 348.009°
平近点角 321.289° 136.899°
近地点 1478.367km 1478.384km
远地点 1510.525km 1510.506km
周期 115.861分钟 115.861分钟
每日圈数 12.428736 12.428737
Detailed Information
使用方式:
暂无
2D Orbit Map
3D Orbit Map
Orbit Altitude Analysis Chart
Orbit Inclination Analysis Chart
Orbit Comprehensive Analysis Chart
View Comprehensive Chart